La Grande, OR

6:43 PM PST on December 14, 2019 (GMT -0800)
La Grande-Union County

Weather History for KLGD - September, 2019

Change the Weather History Date:

Monday, September 23, 2019

  Actual Average Record
Temperature  
Mean Temperature 58 °F -  
Max Temperature 71 °F 72 °F 96 °F (1966)
Min Temperature 51 °F 38 °F 21 °F (1996)
Degree Days  
Heating Degree Days 6    
Growing Degree Days 8 (Base 50)    
Moisture  
Dew Point 48 °F    
Average Humidity 71    
Maximum Humidity 96    
Minimum Humidity 45    
Precipitation  
Precipitation 0.00 in - - ()
Sea Level Pressure  
Sea Level Pressure 30.50 in    
Wind  
Wind Speed 5 mph (WNW)    
Max Wind Speed 12 mph    
Max Gust Speed -    
Visibility 10 miles    
Events      
Averages and records for this station are not official NWS values.
T = Trace of Precipitation, MM = Missing Value Source: NWS Daily Summary

Daily Weather History Graph

Daily Weather History Graph

Search for Another Location

Airport or City:

Astronomy

Sep. 23, 2019 Rise Set
Actual Time 6:40 AM PDT 6:47 PM PDT
Civil Twilight 6:10 AM PDT 7:17 PM PDT
Nautical Twilight 5:36 AM PDT 7:51 PM PDT
Astronomical Twilight 5:00 AM PDT 8:27 PM PDT
Moon 12:09 AM PDT (9/23) 4:03 PM PDT (9/23)
Length of Visible Light 13h 06m
Length of Day
12h 07m
Waning Crescent, 32% of the Moon is Illuminated
Sep 23
Waning Crescent
Sep 28
New
Oct 5
First Quarter
Oct 13
Full
Oct 21
Last Quarter

Hourly Weather History & Observations

Time (PDT) Temp. Dew Point Humidity Pressure Visibility Wind Dir Wind Speed Gust Speed Precip Events Conditions
12:56 AM 54.0 °F 52.0 °F 93% 30.43 in 10.0 mi North 3.5 mph - N/A   Overcast
1:56 AM 53.1 °F 52.0 °F 96% 30.45 in 10.0 mi Calm Calm - N/A   Overcast
2:56 AM 51.1 °F 48.9 °F 92% 30.45 in 10.0 mi NNW 6.9 mph - N/A   Scattered Clouds
3:56 AM 52.0 °F 50.0 °F 93% 30.46 in 10.0 mi South 4.6 mph - N/A   Overcast
4:56 AM 55.0 °F 48.9 °F 80% 30.48 in 10.0 mi WNW 8.1 mph - N/A   Overcast
5:56 AM 54.0 °F 48.9 °F 83% 30.49 in 10.0 mi NNW 5.8 mph - N/A   Overcast
6:56 AM 54.0 °F 48.0 °F 80% 30.52 in 10.0 mi WNW 5.8 mph - N/A   Overcast
7:56 AM 55.0 °F 48.9 °F 80% 30.55 in 10.0 mi West 9.2 mph - N/A   Overcast
8:56 AM 55.0 °F 50.0 °F 83% 30.56 in 10.0 mi WNW 10.4 mph - N/A   Overcast
9:56 AM 57.0 °F 48.9 °F 74% 30.58 in 10.0 mi WNW 8.1 mph - N/A   Overcast
10:56 AM 60.1 °F 50.0 °F 69% 30.59 in 10.0 mi NW 5.8 mph - N/A   Overcast
11:42 AM 62.6 °F 50.0 °F 63% 30.19 in 10.0 mi SE 8.1 mph - N/A   Overcast
11:56 AM 62.1 °F 48.9 °F 62% 30.58 in 10.0 mi ESE 6.9 mph - N/A   Mostly Cloudy
12:11 PM 64.4 °F 50.0 °F 59% 30.19 in 10.0 mi NE 6.9 mph - N/A   Mostly Cloudy
12:27 PM 62.6 °F 48.2 °F 59% 30.19 in 10.0 mi Variable 4.6 mph - N/A   Mostly Cloudy
12:56 PM 64.0 °F 48.9 °F 58% 30.57 in 10.0 mi ESE 9.2 mph - N/A   Partly Cloudy
1:56 PM 66.9 °F 48.0 °F 51% 30.56 in 10.0 mi Variable 4.6 mph - N/A   Clear
4:56 PM 66.0 °F 44.1 °F 45% 30.57 in 10.0 mi NW 11.5 mph - N/A   Mostly Cloudy
5:56 PM 64.9 °F 44.1 °F 47% 30.58 in 10.0 mi NW 6.9 mph - N/A   Mostly Cloudy
7:56 PM 59.0 °F 46.0 °F 62% 30.59 in 10.0 mi WSW 3.5 mph - N/A   Partly Cloudy
8:56 PM 57.9 °F 45.0 °F 62% 30.59 in 10.0 mi Calm Calm - N/A   Scattered Clouds
9:56 PM 53.1 °F 44.1 °F 71% 30.59 in 10.0 mi SSW 3.5 mph - N/A   Mostly Cloudy
10:56 PM 53.1 °F 45.0 °F 74% 30.59 in 10.0 mi South 4.6 mph - N/A   Scattered Clouds
11:56 PM 53.1 °F 45.0 °F 74% 30.59 in 10.0 mi SW 3.5 mph - N/A   Mostly Cloudy